Location: Bretagne
(43.8474°N, 0.4650°W)
Time: 22:48:46
(UTC+00:00)

IRS-P3 - Visible Passes

Search period start: 18 April 2026 00:00
Search period end: 28 April 2026 00:00
Orbit: 810 x 816 km, 99.0° (Epoch: 18 April)

Date Brightness Start Highest point End Pass type
(mag) Time Alt. Az. Time Alt. Az. Time Alt. Az.
20 Apr 7.0 19:49:23 10° SW 19:52:20 15° W 19:55:18 10° NW visible
21 Apr 6.6 19:24:57 10° SSW 19:29:11 24° W 19:33:26 10° NW visible
24 Apr 7.1 19:58:32 10° WSW 20:00:45 13° W 20:02:59 10° WNW visible
25 Apr 6.8 19:33:40 10° SW 19:37:34 21° W 19:41:29 10° NW visible
